User: anonymous   Login
Location: Unspecified
(0.0000°N, 0.0000°E)
Time: 22:23:38
(UTC+00:00)
Language:

METEOR-M - Orbit

View from above orbital plane
View from above orbital plane
View from above satellite
View from above satellite

Ground track
Ground track

The orbit data is extracted from the following two-line orbital elements,

1 35865U 09049A   15029.24161280  .00000057  00000-0  44747-4 0  2951
2 35865 098.5198 074.4358 0002609 144.4297 215.7059 14.21983702278461
Epoch (UTC): 29 January 2015 05:47:55
Eccentricity: 0.0002609
inclination: 98.5198°
perigee height: 817 km
apogee height: 820 km
right ascension of ascending node: 74.4358°
argument of perigee: 144.4297°
revolutions per day: 14.21983702
mean anomaly at epoch: 215.7059°
orbit number at epoch: 27846

The dashed part of the orbit path shows where the satellite is in the earth's shadow,  

DLR